Location: Allmend
(48.1838°N, 7.9015°E)
Time: 19:53:02
(UTC+00:00)

Daily predictions for brighter satellites

Satellite Brightness Start Highest point End
(mag) Time Altitude Azimuth Time Altitude Azimuth Time Altitude Azimuth
Cosmos 2016 Rocket 4.0 18:06:26 10° S 18:12:31 84° E 18:18:41 10° N
Tsikada Rocket 4.0 18:07:33 10° N 18:13:50 72° E 18:20:09 10° SSE
Cosmos 1340 2.4 18:11:43 10° S 18:14:53 50° E 18:18:04 10° NNE
ARGOS Delta rocket 4.4 18:11:20 10° SE 18:16:03 40° ENE 18:20:34 10° N
NOSS 2-1 (D) 3.9 18:14:11 10° NNW 18:17:42 45° NE 18:22:21 10° ESE
Cosmos 1707 4.1 18:17:09 10° NNE 18:19:44 19° ENE 18:22:19 10° ESE
USA 276 2.2 18:16:53 10° WNW 18:19:46 57° N 18:22:29 10° E
Cosmos 2322 Rocket 3.3 18:15:33 10° SW 18:21:05 50° NW 18:26:39 10° NNE
Okean O Rocket 3.2 18:18:28 10° ESE 18:21:36 19° ENE 18:24:43 10° NNE
Cosmos 2237 Rocket 3.6 18:18:29 10° SE 18:21:46 16° E 18:25:03 10° ENE
Meteor 1-18 Rocket 4.3 18:16:18 10° N 18:22:16 72° ENE 18:28:06 10° SSE
Cosmos 1818 3.6 18:16:57 10° SSW 18:22:18 61° ESE 18:27:43 10° NE
GEOS 3 Rocket 3.6 18:23:34 10° SE 18:28:48 79° NE 18:33:59 10° NW
Cosmos 2219 Rocket 2.3 18:23:10 10° SSW 18:28:52 89° ESE 18:34:35 10° NNE
ATLAS 2AS CENTAUR R/B 4.2 18:22:26 10° W 18:29:06 38° NNW 18:35:33 10° NE
CSL-04 Rocket 4.3 18:26:29 10° SE 18:31:21 36° ENE 18:36:11 10° N
Resurs 01 Rocket 2.2 18:27:44 10° SE 18:31:48 37° ENE 18:35:54 10° N
Meteor PRIRODA 3.3 18:32:51 10° SSE 18:36:09 79° ENE 18:39:27 10° N
ADEOS 3.6 18:31:13 10° SSE 18:36:26 89° ENE 18:41:42 10° NNW
Cosmos 2333 Rocket 3.3 18:32:30 10° SW 18:38:05 50° NW 18:43:42 10° NNE
USA 308 1.1 18:38:02 10° W 18:38:56 29° SSW 18:39:29 20° SSE
KORONAS-FOTON 4.2 18:36:35 10° N 18:40:07 40° ENE 18:43:35 10° SSE
Cosmos 1766 Rocket 3.7 18:38:05 10° S 18:42:17 50° E 18:46:32 10° NNE
Okean-O 4.2 18:39:46 12° E 18:42:18 18° ENE 18:45:19 10° NNE
SJ-6B 2.6 18:39:04 10° SSE 18:42:42 85° W 18:46:20 10° NNW
Cosmos 1743 2.6 18:40:24 10° S 18:43:58 82° W 18:47:33 10° N
TSX-5 3.2 18:40:57 10° NNW 18:44:05 87° WSW 18:47:19 10° SSE
YAOGAN 1 4.4 18:44:37 10° SSW 18:48:31 34° W 18:52:27 10° NNW
Cosmos 2369 Rocket 4.3 18:47:14 10° N 18:49:58 13° NNE 18:52:41 10° ENE
Cosmos 1980 4.5 18:45:49 10° SSE 18:50:35 29° ESE 18:55:24 10° NE
SPOT 1/Viking Rocket 3.8 18:47:45 10° S 18:52:55 72° WSW 18:58:06 10° NNW
Terra 3.7 18:53:03 11° E 18:54:47 13° NE 18:57:02 10° NNE
Cosmos 1814 Rocket 4.0 18:52:02 10° S 18:57:16 64° ESE 19:02:28 10° NNE
Kosmos-1783 1.9 18:54:53 10° SW 18:57:22 85° SE 18:58:29 20° NE
Cosmos 2322 3.7 18:53:26 10° SSW 18:59:04 86° ESE 19:04:46 10° NNE
Cosmos 1400 Rocket 3.0 18:56:12 10° NNW 19:00:01 68° W 19:03:46 10° S
USA 59 Rocket 0.1 18:59:13 10° NW 19:03:02 84° SW 19:07:20 15° SE
CZ-4B R/B 4.2 18:59:45 10° S 19:04:21 50° W 19:09:02 10° NNW
Cosmos 1943 Rocket 2.5 19:01:01 10° NNW 19:06:21 48° NE 19:09:57 20° ESE
CSL-04 Debris 4.2 19:01:20 10° SSE 19:06:46 73° ENE 19:12:15 10° NNW
Feng Yun 1-1 Rocket 4.3 19:01:50 10° SSE 19:07:35 74° ENE 19:13:28 10° NNW
ACS3 Solar Sail 2.1 19:01:57 11° SE 19:07:50 52° ENE 19:14:01 10° N
USA 267 4.1 19:03:06 10° ENE 19:09:09 42° N 19:15:14 10° WNW
Cosmos 1315 Rocket 3.7 19:08:00 10° N 19:11:34 31° ENE 19:12:48 25° ESE
Cosmos 1328 Rocket 3.9 19:08:27 10° NNW 19:12:43 66° W 19:16:58 10° S
MOS 1-B 4.3 19:07:13 10° SSE 19:12:57 69° ENE 19:18:43 10° NNW
Helios 1A 3.4 19:09:39 10° N 19:13:41 62° WNW 19:17:41 10° SSW
Meteor 1-4 Rocket 2.3 19:14:27 10° NNW 19:17:06 56° W 19:18:58 17° S
GRACE-FO 1 4.4 19:14:02 10° S 19:17:34 87° W 19:21:07 10° N
GRACE-FO 2 4.5 19:14:26 10° S 19:17:58 86° W 19:21:32 10° N
Cosmos 1536 2.7 19:15:22 10° S 19:19:06 58° E 19:22:53 10° NNE
Cosmos 1891 Rocket 4.4 19:13:53 10° S 19:19:57 86° E 19:26:11 10° N
COSMOS 2428 2.8 19:15:18 10° SSW 19:21:00 81° WNW 19:26:47 10° NNE
NOSS 2-1 (C) 4.0 19:18:03 10° NW 19:21:49 57° SW 19:25:31 17° SSE
Meteor 1-13 Rocket 4.3 19:15:57 10° N 19:21:50 61° ENE 19:26:02 19° SSE
Aureole 1 4.2 19:18:54 10° NNW 19:21:58 71° ENE 19:23:12 35° SE
Cosmos 1805 Rocket 4.4 19:22:56 27° E 19:23:12 28° E 19:26:53 10° NNE
USA 290 2.4 19:20:30 10° NNW 19:23:48 72° WSW 19:25:26 27° S
Cosmos 1726 4.4 19:22:38 10° WSW 19:24:48 20° WNW 19:26:59 10° NNW
CARTOSAT-1 3.8 19:20:37 10° S 19:24:50 67° WSW 19:29:05 10° NNW
CZ-4 R/B 2.6 19:21:30 10° S 19:25:06 40° W 19:28:46 10° NNW
Nadezhda 4 Rocket 4.0 19:21:52 10° N 19:28:07 69° ENE 19:33:13 16° SSE
ISS -2.7 19:25:19 10° SSW 19:27:44 30° S 19:27:44 30° S
SPOT 5 3.2 19:27:16 30° ESE 19:29:02 43° ENE 19:33:18 10° N
BlueWalker 3 2.8 19:25:35 10° WNW 19:29:06 39° SW 19:30:35 26° S
SL-14 R/B 4.2 19:27:38 10° NNE 19:30:52 28° ENE 19:30:52 28° ENE
IKONOS-2 4.3 19:27:00 10° NNE 19:31:09 67° ESE 19:35:15 10° S
USA 186 3.0 19:28:31 10° S 19:31:34 40° W 19:34:40 10° NNW
Cosmos 1674 4.4 19:29:27 10° NNW 19:32:22 28° W 19:35:14 10° SSW
Cosmos 1092 Rocket 4.5 19:27:37 10° N 19:33:36 42° ENE 19:36:17 28° ESE
SWARM A 4.2 19:33:31 34° SSE 19:34:52 72° E 19:38:23 10° N
Meteor 1-23 Rocket 4.5 19:30:28 10° N 19:35:56 48° ENE 19:38:15 31° SE
Cosmos 2026 Rocket 4.4 19:30:07 10° N 19:36:06 44° ENE 19:38:38 30° ESE
Cosmos 1733 2.7 19:34:15 24° S 19:36:14 80° E 19:39:41 10° NNE
Cosmos 2278 Rocket 2.3 19:31:01 10° NNW 19:36:42 76° WSW 19:40:33 21° SSE
Cosmos 1805 4.2 19:38:51 29° ENE 19:38:51 29° ENE 19:41:11 10° NNE
MOS 1 4.3 19:35:57 26° SE 19:39:10 65° ENE 19:44:48 10° N
Meteor 2-9 Rocket 4.1 19:34:32 12° S 19:39:23 58° E 19:44:43 10° NNE
Cosmos 158 Rocket 3.9 19:35:07 10° S 19:39:49 49° ESE 19:44:30 10° NNE
USA 306 2.7 19:36:39 10° WSW 19:39:53 64° NNW 19:41:33 29° NE
CZ-4B R/B 3.7 19:35:01 10° S 19:40:26 59° WSW 19:45:46 10° NNW
Cosmos 2298 Rocket 4.4 19:35:33 10° NNW 19:40:40 46° ENE 19:42:21 35° ESE
NOSS 0 Rocket 3.9 19:34:44 10° SSW 19:40:59 87° ESE 19:47:16 10° NNE
USA 32 4.1 19:37:50 10° N 19:43:00 55° E 19:44:57 35° SE
Cosmos 1464 Rocket 4.0 19:36:54 10° S 19:43:13 89° E 19:49:38 10° N
Cosmos 2150 Rocket 4.3 19:38:46 10° NNW 19:43:47 48° ENE 19:45:14 37° ESE
Cosmos 1570 Rocket 3.9 19:40:50 10° S 19:46:03 65° ESE 19:51:17 10° NNE
Aureole 3 Rocket 3.9 19:39:27 10° S 19:46:32 59° E 19:51:38 10° NNE
Sich 1 3.0 19:49:03 51° ESE 19:49:33 54° E 19:53:46 10° NNE
Lacrosse 4 Rocket 4.0 19:47:34 10° WNW 19:50:22 17° WSW 19:53:10 10° SSW
Cosmos 1356 Rocket 4.5 19:46:46 10° NNW 19:50:46 44° W 19:53:58 15° SSW
MOS 1 Rocket 3.6 19:49:57 41° ESE 19:51:25 56° ENE 19:56:34 10° N
Okean 3 Rocket 4.2 19:48:50 10° SSW 19:53:15 58° WNW 19:57:39 10° N
USA 276 3.1 19:51:06 10° WNW 19:53:02 37° W 19:53:02 37° W
Cosmos 1707 4.2 19:51:25 10° NNW 19:54:36 31° W 19:57:10 14° SSW
ERS-1 Rocket 3.2 19:56:18 45° ESE 19:57:15 51° ENE 20:02:08 10° N
Meteor 1-11 Rocket 3.6 19:51:38 10° S 19:57:17 88° W 20:02:52 10° N
Okean O Rocket 2.2 19:54:49 23° S 19:57:27 56° W 20:01:50 10° NNW
IRS-1C Rocket 4.3 19:56:16 43° ESE 19:57:33 54° ENE 20:02:41 10° N
DELTA 2 DEB (DPAF) 3.9 19:53:25 10° NNE 19:57:35 61° ESE 19:57:40 61° ESE
MetOp-B 4.0 19:56:34 39° SSE 19:58:38 76° ENE 20:04:00 10° NNW
Ariane Rocket 3.7 20:00:30 34° ENE 20:00:51 35° ENE 20:05:25 10° N
Cosmos 836 Rocket 4.5 19:59:27 34° S 20:01:34 59° ESE 20:06:47 10° NNE
PSLV R/B 3.9 20:01:55 53° SW 20:02:26 61° W 20:05:58 10° NNW
MINOTAUR IV R/B 4.5 19:58:41 10° NNW 20:03:15 84° ENE 20:03:56 64° SE
Cosmos 2034 Rocket 3.9 19:57:52 10° S 20:04:05 87° ESE 20:10:19 10° N
Cosmos 2237 Rocket 2.1 19:59:23 10° SSW 20:05:01 87° WNW 20:10:41 10° NNE
Cosmos 1125 Rocket 3.8 20:01:23 10° NNW 20:06:31 63° WSW 20:08:40 34° S
Cosmos 1627 Rocket 4.4 20:01:12 10° N 20:07:31 72° E 20:09:42 42° SSE
Resurs 01 Rocket 3.6 20:04:37 10° SSW 20:08:19 26° W 20:12:02 10° NW
Cosmos 2297 4.3 20:07:34 10° NNW 20:12:53 40° NE 20:13:41 38° ENE
Cosmos 2228 Rocket 3.8 20:08:59 10° N 20:12:48 42° NE 20:12:48 42° NE
Cosmos 839 Rocket 4.4 20:04:58 10° SSW 20:13:42 88° SE 20:20:39 10° NE
Okean-O 3.0 20:17:13 45° SSW 20:18:15 59° W 20:22:37 10° NNW
Cosmos 1500 Rocket 3.8 20:18:47 42° SW 20:20:06 67° W 20:24:28 10° N
SPOT 3 Rocket 3.8 20:23:21 51° ENE 20:23:21 51° ENE 20:28:18 10° N
Meteor 1-21 4.1 20:18:26 10° N 20:24:12 79° ENE 20:25:14 61° SSE
Cosmos 773 Rocket 4.3 20:26:40 51° ENE 20:26:40 51° ENE 20:30:55 10° NNE
Cosmos 1743 Rocket 3.5 20:25:53 77° W 20:25:53 77° W 20:30:14 10° N
IRS-1A Rocket 4.3 20:26:12 51° S 20:27:46 83° WSW 20:33:30 10° NNW
Terra 1.7 20:31:45 84° NNE 20:31:45 84° NNE 20:36:22 10° NNW
Cosmos 2279 Rocket 4.1 20:33:00 54° E 20:33:00 54° E 20:39:00 10° NNE
Cosmos 1980 4.4 20:28:50 10° SW 20:34:22 52° NW 20:39:57 10° NNE
Cosmos 2208 Rocket 4.2 20:29:55 12° SSW 20:34:50 69° WNW 20:40:11 10° NNE
Cosmos 2369 Rocket 2.6 20:29:57 10° NNW 20:35:29 48° NE 20:35:41 48° ENE
BREEZE-M DEB (TANK) 4.4 20:34:43 10° WNW 20:38:26 87° SSW 20:39:47 58° ESE
NOSS 3-3 (C) 3.7 20:39:07 10° SW 20:44:32 90° NW 20:50:59 10° NE
Cosmos 1975 4.3 20:48:45 32° N 20:48:45 32° N 20:51:02 10° N
Cosmos 1607 4.4 20:50:25 48° ENE 20:50:25 48° ENE 20:55:09 10° NE
Cosmos 1943 Rocket 3.5 20:45:07 10° NW 20:49:52 31° WSW 20:51:28 26° SW
USA 267 3.4 20:50:06 51° ENE 20:51:37 65° NNE 20:58:05 10° NW
ACS3 Solar Sail 3.3 20:47:14 13° SSW 20:52:08 32° W 20:57:49 10° NNW
USA 59 Rocket 2.9 20:50:26 10° W 20:52:24 12° WSW 20:53:44 11° SW
NOSS 3-3 (A) 4.0 20:54:31 10° SW 20:59:58 71° NW 21:06:26 10° NE
SL-16 R/B 2.7 21:05:29 51° NNE 21:05:29 51° NNE 21:09:39 10° NNE
Spot 2 Rocket 4.0 21:07:26 55° WNW 21:07:26 55° WNW 21:11:58 10° NNW
Cosmos 2266 Rocket 4.1 21:16:35 10° N 21:22:08 69° NNE 21:22:08 69° NNE
NOSS 3-4 (A) 3.7 21:17:21 10° NW 21:24:12 86° SW 21:24:21 85° SSW
NOSS 3-4 (C) 3.7 21:17:27 10° NW 21:24:18 86° SW 21:24:27 85° S
Cosmos 1656 Rocket 4.2 21:19:01 10° NNW 21:23:46 54° WNW 21:23:46 54° WNW
Ariane Rocket 4.4 21:40:38 33° WNW 21:40:38 33° WNW 21:44:24 10° NNW
Cosmos 1655 Rocket 4.4 21:52:36 10° N 21:57:43 60° NNW 21:57:43 60° NNW
USA 215 4.4 21:52:47 10° NE 21:55:57 31° NE 21:55:57 31° NE
Terra 4.5 22:10:26 12° W 22:10:26 12° W 22:11:49 10° WNW
ATLAS 2AS CENTAUR R/B 4.2 22:09:18 10° NW 22:15:15 29° NNE 22:17:27 24° NE
Cosmos 2369 Rocket 3.9 22:14:18 10° NW 22:17:27 26° WNW 22:17:27 26° WNW
USA 267 4.4 22:37:27 33° W 22:37:27 33° W 22:41:07 10° WNW
SL-16 R/B 4.3 22:47:17 20° WNW 22:48:47 22° NW 22:53:09 10° N
Cosmos 1697 Rocket 4.3 23:22:08 10° NNW 23:25:17 30° N 23:25:17 30° N
USA 215 4.1 23:35:50 10° ENE 23:42:00 46° NNW 23:43:14 41° NW
